Location: Finnegan
(51.1333°N, 112.0833°W)
Time: 12:42:34
(UTC+00:00)

Envisat - Pass Details

Date: 09 December 2021
Orbit: 764 x 766 km, 98.2° (Epoch: 28 January)

Event Time Altitude Azimuth Distance (km) Brightness Sun altitude
Rises 14:04:05 0° 6° (N) 3,248 6.1 -11.2°
Reaches altitude 10° 14:06:48 10° 352° (N) 2,317 5.2 -10.8°
Maximum altitude 14:10:44 23° 302° (WNW) 1,588 4.0 -10.2°
Drops below altitude 10° 14:14:39 10° 251° (WSW) 2,304 5.1 -9.7°
Sets 14:17:21 0° 237° (WSW) 3,226 5.9 -9.3°
